Kosmos-2591

operational
NORAD ID: 64627 Int'l Des: 2022-089 Owner: TSKHM Country: RU
LEOCIRCULARRETROGRADESSO

Über Kosmos-2591

Beschreibung wird geladen...

Live-Position

3D-Globus wird geladen...

Nächste Überflüge

Höhenverlauf

Altitude vs Time

uPlot chart will show altitude changes over time

Zweizeiliger Elementsatz

1 64627U 22089C 25340.74357550 .00019018 00000-0 51588-3 0 9995
2 64627 97.2359 74.7973 0013684 40.8423 319.3845 15.37567003 25076
Epoch: 6. Dez. 2025 • Age: 21 hours

Aktueller Status

Höhe 459.4 km
Geschwindigkeit 7.65 km/s
Subsatellitenpunkt 77.77°N, 105.97°E
Startdatum 1. Aug. 2022
Alter 3.3 years
Typ other

Technische Details

Klassifizierung Payload
Masse 100.00 kg
Trockenmasse 100.00 kg
Gesamtmasse 100.00 kg
Länge 1.00 m
Durchmesser 0.40 m
Spannweite 1.00 m
Form Hex Cyl + Ant
Hersteller TSKHM
Bus-Typ Nivelir
Phasenstatus In Orbit
Besitzer/Staat TSKHM/RU

Große Konstellationen

Loading constellations...